Time,TemperatureF,DewpointF,PressureIn,WindDirection,WindDirectionDegrees,WindSpeedMPH,WindSpeedGustMPH,Humidity,HourlyPrecipIn,Conditions,Clouds,dailyrainin,SoftwareType,DateUTC
2013-08-07 00:00:00,83.8,76.6,29.92,South,172,0.0,8.0,79,0.00,,,0.01,VWS V14.01,2013-08-07 05:00:00,
2013-08-07 00:01:00,83.8,76.6,29.92,SSE,166,1.5,4.0,79,0.00,,,0.00,VWS V14.01,2013-08-07 05:01:00,
2013-08-07 00:06:00,83.8,76.6,29.92,South,188,6.0,6.0,79,0.00,,,0.00,VWS V14.01,2013-08-07 05:06:00,
2013-08-07 00:11:00,83.8,76.6,29.92,SSW,194,1.5,7.0,79,0.00,,,0.00,VWS V14.01,2013-08-07 05:11:00,
2013-08-07 00:16:00,83.7,76.5,29.92,South,190,6.0,7.0,79,0.00,,,0.00,VWS V14.01,2013-08-07 05:16:00,
2013-08-07 00:21:00,83.8,76.6,29.92,South,177,7.5,7.5,79,0.00,,,0.00,VWS V14.01,2013-08-07 05:21:00,
2013-08-07 00:26:00,83.8,76.6,29.92,SSW,207,4.5,8.0,79,0.00,,,0.00,VWS V14.01,2013-08-07 05:26:00,
2013-08-07 00:31:00,83.8,76.6,29.92,SSE,155,0.0,8.0,79,0.00,,,0.00,VWS V14.01,2013-08-07 05:31:00,
2013-08-07 00:36:00,83.6,76.4,29.92,South,191,6.0,8.0,79,0.00,,,0.00,VWS V14.01,2013-08-07 05:36:00,
2013-08-07 00:41:00,83.6,76.4,29.92,South,173,3.0,8.0,79,0.00,,,0.00,VWS V14.01,2013-08-07 05:41:00,
2013-08-07 00:46:00,83.5,76.3,29.92,SSE,166,3.0,8.0,79,0.00,,,0.00,VWS V14.01,2013-08-07 05:46:00,
2013-08-07 00:51:00,83.3,76.1,29.92,SSE,167,3.0,8.0,79,0.00,,,0.00,VWS V14.01,2013-08-07 05:51:00,
2013-08-07 00:56:00,83.3,76.1,29.92,SSW,200,1.5,8.0,79,0.00,,,0.00,VWS V14.01,2013-08-07 05:56:00,
2013-08-07 01:00:00,83.8,76.6,29.92,South,172,0.0,8.0,79,0.00,,,0.01,VWS V15.00,2013-08-07 06:00:00,
2013-08-07 01:01:00,83.2,76.0,29.92,SSW,203,3.0,8.0,79,0.00,,,0.00,VWS V14.01,2013-08-07 06:01:00,
2013-08-07 01:06:00,83.0,75.8,29.92,South,177,4.5,8.0,79,0.00,,,0.00,VWS V14.01,2013-08-07 06:06:00,
2013-08-07 01:11:00,83.0,75.8,29.92,South,183,1.5,8.0,79,0.00,,,0.00,VWS V14.01,2013-08-07 06:11:00,
2013-08-07 01:16:00,82.9,75.7,29.92,SSW,201,0.0,8.0,79,0.00,,,0.00,VWS V14.01,2013-08-07 06:16:00,
2013-08-07 01:21:00,82.8,75.6,29.92,SSE,166,4.5,8.0,79,0.00,,,0.00,VWS V14.01,2013-08-07 06:21:00,
2013-08-07 01:26:00,82.7,75.5,29.92,South,179,4.5,8.0,79,0.00,,,0.00,VWS V14.01,2013-08-07 06:26:00,
2013-08-07 01:31:00,82.7,75.5,29.91,SSE,150,4.5,8.0,79,0.00,,,0.00,VWS V14.01,2013-08-07 06:31:00,
2013-08-07 01:36:00,82.6,75.4,29.91,South,189,1.5,8.0,79,0.00,,,0.00,VWS V14.01,2013-08-07 06:36:00,
2013-08-07 01:41:00,82.5,75.3,29.91,SSE,159,0.0,8.0,79,0.00,,,0.00,VWS V14.01,2013-08-07 06:41:00,
2013-08-07 01:46:00,82.3,75.1,29.90,SSE,166,4.5,8.0,79,0.00,,,0.00,VWS V14.01,2013-08-07 06:46:00,
2013-08-07 01:51:00,82.2,75.0,29.90,SSE,155,6.0,8.0,79,0.00,,,0.00,VWS V14.01,2013-08-07 06:51:00,
2013-08-07 01:56:00,82.2,75.0,29.90,SW,217,1.5,8.0,79,0.00,,,0.00,VWS V14.01,2013-08-07 06:56:00,
2013-08-07 02:00:00,82.1,74.9,29.90,WNW,302,1.5,8.0,79,0.00,,,0.00,VWS V14.01,2013-08-07 07:00:00,
2013-08-07 02:01:00,82.1,74.9,29.90,SW,225,3.0,3.0,79,0.00,,,0.00,VWS V14.01,2013-08-07 07:01:00,
2013-08-07 02:06:00,81.9,74.8,29.90,South,181,4.5,5.0,79,0.00,,,0.00,VWS V14.01,2013-08-07 07:06:00,
2013-08-07 02:11:00,81.9,74.8,29.89,South,180,4.5,7.0,79,0.00,,,0.00,VWS V14.01,2013-08-07 07:11:00,
2013-08-07 02:16:00,81.8,74.7,29.89,SW,219,1.5,7.0,79,0.00,,,0.00,VWS V14.01,2013-08-07 07:16:00,
2013-08-07 02:21:00,81.7,74.2,29.89,South,191,4.5,7.0,78,0.00,,,0.00,VWS V14.01,2013-08-07 07:21:00,
2013-08-07 02:26:00,81.7,74.2,29.88,South,191,1.5,7.0,78,0.00,,,0.00,VWS V14.01,2013-08-07 07:26:00,
2013-08-07 02:31:00,81.7,74.2,29.88,SSE,160,7.5,8.0,78,0.00,,,0.00,VWS V14.01,2013-08-07 07:31:00,
2013-08-07 02:36:00,81.6,74.1,29.88,South,176,3.0,8.0,78,0.00,,,0.00,VWS V14.01,2013-08-07 07:36:00,
2013-08-07 02:41:00,81.6,74.1,29.88,South,181,7.5,9.0,78,0.00,,,0.00,VWS V14.01,2013-08-07 07:41:00,
2013-08-07 02:46:00,81.6,73.7,29.89,SSW,195,1.5,9.0,77,0.00,,,0.00,VWS V14.01,2013-08-07 07:46:00,
2013-08-07 02:51:00,81.6,73.7,29.89,SSW,198,3.0,9.0,77,0.00,,,0.00,VWS V14.01,2013-08-07 07:51:00,
2013-08-07 02:56:00,81.6,73.7,29.89,South,187,1.5,9.0,77,0.00,,,0.00,VWS V14.01,2013-08-07 07:56:00,
2013-08-07 03:00:00,82.1,74.9,29.90,WNW,302,1.5,8.0,79,0.00,,,0.00,VWS V15.00,2013-08-07 08:00:00,
2013-08-07 03:01:00,81.5,73.6,29.89,SSW,198,6.0,9.0,77,0.00,,,0.00,VWS V14.01,2013-08-07 08:01:00,
2013-08-07 03:06:00,81.4,73.5,29.89,South,176,6.0,9.0,77,0.00,,,0.00,VWS V14.01,2013-08-07 08:06:00,
2013-08-07 03:11:00,81.3,73.4,29.89,SSW,201,1.5,9.0,77,0.00,,,0.00,VWS V14.01,2013-08-07 08:11:00,
2013-08-07 03:16:00,81.2,73.3,29.89,South,169,0.0,9.0,77,0.00,,,0.00,VWS V14.01,2013-08-07 08:16:00,
2013-08-07 03:21:00,81.0,73.1,29.89,SW,221,0.0,9.0,77,0.00,,,0.00,VWS V14.01,2013-08-07 08:21:00,
2013-08-07 03:26:00,81.0,73.1,29.89,SSE,167,3.0,9.0,77,0.00,,,0.00,VWS V14.01,2013-08-07 08:26:00,
2013-08-07 03:31:00,80.8,72.9,29.89,SSW,200,1.5,9.0,77,0.00,,,0.00,VWS V14.01,2013-08-07 08:31:00,
2013-08-07 03:36:00,80.6,73.1,29.89,SSW,201,1.5,9.0,78,0.00,,,0.00,VWS V14.01,2013-08-07 08:36:00,
2013-08-07 03:41:00,80.4,72.9,29.89,SSE,165,0.0,9.0,78,0.00,,,0.00,VWS V14.01,2013-08-07 08:41:00,
2013-08-07 03:46:00,80.3,72.8,29.88,SSW,208,3.0,9.0,78,0.00,,,0.00,VWS V14.01,2013-08-07 08:46:00,
2013-08-07 03:51:00,80.3,72.8,29.88,South,170,1.5,9.0,78,0.00,,,0.00,VWS V14.01,2013-08-07 08:51:00,
2013-08-07 03:56:00,80.4,72.5,29.88,SSE,167,0.0,9.0,77,0.00,,,0.00,VWS V14.01,2013-08-07 08:56:00,
2013-08-07 04:00:00,80.3,72.4,29.88,SSE,168,1.5,9.0,77,0.00,,,0.00,VWS V14.01,2013-08-07 09:00:00,
2013-08-07 04:01:00,80.3,72.4,29.89,SE,138,1.5,2.0,77,0.00,,,0.00,VWS V14.01,2013-08-07 09:01:00,
2013-08-07 04:06:00,80.3,72.4,29.89,ESE,121,0.0,3.0,77,0.00,,,0.00,VWS V14.01,2013-08-07 09:06:00,
2013-08-07 04:10:00,80.1,72.2,29.89,ESE,121,0.0,3.0,77,0.00,,,0.00,VWS V14.01,2013-08-07 09:10:00,
2013-08-07 04:15:00,80.1,72.2,29.89,SE,146,0.0,3.0,77,0.00,,,0.00,VWS V14.01,2013-08-07 09:15:00,
2013-08-07 04:20:00,80.0,72.5,29.89,SE,146,0.0,3.0,78,0.00,,,0.00,VWS V14.01,2013-08-07 09:20:00,
2013-08-07 04:25:00,79.9,72.4,29.90,SE,146,0.0,3.0,78,0.00,,,0.00,VWS V14.01,2013-08-07 09:25:00,
2013-08-07 04:30:00,79.7,72.2,29.90,SSE,147,0.0,3.0,78,0.00,,,0.00,VWS V14.01,2013-08-07 09:30:00,
2013-08-07 04:35:00,79.6,72.9,29.90,SSE,147,0.0,3.0,80,0.00,,,0.00,VWS V14.01,2013-08-07 09:35:00,
2013-08-07 04:40:00,79.3,72.6,29.90,SSE,147,0.0,3.0,80,0.00,,,0.00,VWS V14.01,2013-08-07 09:40:00,
2013-08-07 04:45:00,79.3,73.0,29.90,SE,146,0.0,3.0,81,0.00,,,0.00,VWS V14.01,2013-08-07 09:45:00,
2013-08-07 04:50:00,79.2,72.5,29.90,SSE,147,0.0,3.0,80,0.00,,,0.00,VWS V14.01,2013-08-07 09:50:00,
2013-08-07 04:55:00,78.9,72.6,29.91,SSE,147,0.0,3.0,81,0.00,,,0.00,VWS V14.01,2013-08-07 09:55:00,
2013-08-07 05:00:00,78.6,72.3,29.91,SE,146,0.0,3.0,81,0.00,,,0.00,VWS V14.01,2013-08-07 10:00:00,
2013-08-07 05:05:00,78.4,72.4,29.92,SSE,147,0.0,3.0,82,0.00,,,0.00,VWS V14.01,2013-08-07 10:05:00,
2013-08-07 05:10:00,78.1,72.5,29.93,NW,320,6.0,7.0,83,0.00,,,0.00,VWS V14.01,2013-08-07 10:10:00,
2013-08-07 05:15:00,78.1,72.9,29.92,East,89,0.0,7.0,84,0.00,,,0.00,VWS V14.01,2013-08-07 10:15:00,
2013-08-07 05:16:00,78.1,72.9,29.92,East,89,0.0,7.0,84,0.00,,,0.00,VWS V14.01,2013-08-07 10:16:00,
2013-08-07 05:21:00,77.9,73.0,29.92,SSE,164,0.0,7.0,85,0.00,,,0.00,VWS V14.01,2013-08-07 10:21:00,
2013-08-07 05:26:00,77.8,72.9,29.92,NW,310,1.5,7.0,85,0.00,,,0.00,VWS V14.01,2013-08-07 10:26:00,
2013-08-07 05:31:00,77.7,72.8,29.92,NW,305,0.0,7.0,85,0.00,,,0.00,VWS V14.01,2013-08-07 10:31:00,
2013-08-07 05:36:00,77.5,73.0,29.92,NW,304,0.0,7.0,86,0.00,,,0.00,VWS V14.01,2013-08-07 10:36:00,
2013-08-07 05:41:00,77.2,72.7,29.92,NW,304,0.0,7.0,86,0.00,,,0.00,VWS V14.01,2013-08-07 10:41:00,
2013-08-07 05:46:00,77.0,72.8,29.91,NW,305,1.5,7.0,87,0.00,,,0.00,VWS V14.01,2013-08-07 10:46:00,
2013-08-07 05:51:00,77.1,72.9,29.91,NW,321,0.0,7.0,87,0.00,,,0.00,VWS V14.01,2013-08-07 10:51:00,
2013-08-07 05:55:00,76.9,72.7,29.91,South,179,0.0,7.0,87,0.00,,,0.00,VWS V14.01,2013-08-07 10:55:00,
2013-08-07 06:00:00,76.6,72.8,29.91,South,179,0.0,0.0,88,0.00,,,0.00,VWS V14.01,2013-08-07 11:00:00,
2013-08-07 06:05:00,76.3,72.5,29.91,South,179,0.0,0.0,88,0.00,,,0.00,VWS V14.01,2013-08-07 11:05:00,
2013-08-07 06:10:00,76.1,72.6,29.91,South,179,0.0,0.0,89,0.00,,,0.00,VWS V14.01,2013-08-07 11:10:00,
2013-08-07 06:15:00,75.8,72.3,29.91,South,179,0.0,0.0,89,0.00,,,0.00,VWS V14.01,2013-08-07 11:15:00,
2013-08-07 06:20:00,75.6,72.5,29.91,South,179,0.0,0.0,90,0.00,,,0.00,VWS V14.01,2013-08-07 11:20:00,
2013-08-07 06:25:00,75.6,72.5,29.91,South,180,0.0,0.0,90,0.00,,,0.00,VWS V14.01,2013-08-07 11:25:00,
2013-08-07 06:30:00,75.5,72.4,29.92,South,179,0.0,0.0,90,0.00,,,0.00,VWS V14.01,2013-08-07 11:30:00,
2013-08-07 06:35:00,75.4,72.6,29.92,South,179,0.0,0.0,91,0.00,,,0.00,VWS V14.01,2013-08-07 11:35:00,
2013-08-07 06:40:00,75.3,72.5,29.92,South,179,0.0,0.0,91,0.00,,,0.00,VWS V14.01,2013-08-07 11:40:00,
2013-08-07 06:45:00,75.3,72.5,29.92,South,179,0.0,0.0,91,0.00,,,0.00,VWS V14.01,2013-08-07 11:45:00,
2013-08-07 06:50:00,75.1,72.6,29.92,South,179,0.0,0.0,92,0.00,,,0.00,VWS V14.01,2013-08-07 11:50:00,
2013-08-07 06:55:00,75.1,72.6,29.93,South,179,0.0,0.0,92,0.00,,,0.00,VWS V14.01,2013-08-07 11:55:00,
2013-08-07 07:00:00,75.0,72.5,29.94,South,179,0.0,0.0,92,0.00,,,0.00,VWS V14.01,2013-08-07 12:00:00,
2013-08-07 07:05:00,75.1,72.6,29.94,South,179,0.0,0.0,92,0.00,,,0.00,VWS V14.01,2013-08-07 12:05:00,
2013-08-07 07:10:00,75.3,72.8,29.94,South,179,0.0,0.0,92,0.00,,,0.00,VWS V14.01,2013-08-07 12:10:00,
2013-08-07 07:15:00,75.4,72.9,29.94,South,179,0.0,0.0,92,0.00,,,0.00,VWS V14.01,2013-08-07 12:15:00,
2013-08-07 07:20:00,75.5,73.0,29.95,South,179,0.0,0.0,92,0.00,,,0.00,VWS V14.01,2013-08-07 12:20:00,
2013-08-07 07:25:00,75.6,73.1,29.95,South,179,0.0,0.0,92,0.00,,,0.00,VWS V14.01,2013-08-07 12:25:00,
2013-08-07 07:30:00,75.9,73.1,29.96,South,179,0.0,0.0,91,0.00,,,0.00,VWS V14.01,2013-08-07 12:30:00,
2013-08-07 07:35:00,76.2,73.4,29.97,NE,56,1.5,2.0,91,0.00,,,0.00,VWS V14.01,2013-08-07 12:35:00,
2013-08-07 07:40:00,76.4,73.2,29.97,NE,55,0.0,2.0,90,0.00,,,0.00,VWS V14.01,2013-08-07 12:40:00,
2013-08-07 07:45:00,76.6,73.8,29.97,NE,56,0.0,2.0,91,0.00,,,0.00,VWS V14.01,2013-08-07 12:45:00,
2013-08-07 07:50:00,76.7,73.9,29.97,NE,56,0.0,2.0,91,0.00,,,0.00,VWS V14.01,2013-08-07 12:50:00,
2013-08-07 07:55:00,76.8,73.7,29.97,NE,56,0.0,2.0,90,0.00,,,0.00,VWS V14.01,2013-08-07 12:55:00,
2013-08-07 08:00:00,77.0,73.8,29.97,NE,55,0.0,0.0,90,0.00,,,0.00,VWS V14.01,2013-08-07 13:00:00,
2013-08-07 08:05:00,77.3,74.1,29.97,NE,56,0.0,0.0,90,0.00,,,0.00,VWS V14.01,2013-08-07 13:05:00,
2013-08-07 08:10:00,77.6,74.4,29.98,NE,56,1.5,1.5,90,0.00,,,0.00,VWS V14.01,2013-08-07 13:10:00,
2013-08-07 08:15:00,78.0,74.5,29.98,NE,56,0.0,1.0,89,0.00,,,0.00,VWS V14.01,2013-08-07 13:15:00,
2013-08-07 08:20:00,78.3,74.5,29.98,NE,56,0.0,1.0,88,0.00,,,0.00,VWS V14.01,2013-08-07 13:20:00,
2013-08-07 08:25:00,78.6,74.8,29.97,NE,55,0.0,1.0,88,0.00,,,0.00,VWS V14.01,2013-08-07 13:25:00,
2013-08-07 08:30:00,79.1,75.2,29.97,NE,56,0.0,1.0,88,0.00,,,0.00,VWS V14.01,2013-08-07 13:30:00,
2013-08-07 08:35:00,79.6,75.4,29.97,SSE,165,0.0,2.0,87,0.00,,,0.00,VWS V14.01,2013-08-07 13:35:00,
2013-08-07 08:40:00,80.1,75.5,29.97,SSE,160,0.0,2.0,86,0.00,,,0.00,VWS V14.01,2013-08-07 13:40:00,
2013-08-07 08:45:00,80.3,75.4,29.97,ENE,75,0.0,2.0,85,0.00,,,0.00,VWS V14.01,2013-08-07 13:45:00,
2013-08-07 08:50:00,80.6,75.3,29.97,East,84,0.0,2.0,84,0.00,,,0.00,VWS V14.01,2013-08-07 13:50:00,
2013-08-07 08:55:00,80.9,75.6,29.97,East,84,0.0,2.0,84,0.00,,,0.00,VWS V14.01,2013-08-07 13:55:00,
2013-08-07 09:00:00,81.2,75.9,29.97,South,184,0.0,2.0,84,0.00,,,0.00,VWS V14.01,2013-08-07 14:00:00,
2013-08-07 09:05:00,81.4,76.1,29.98,ENE,75,1.5,2.0,84,0.00,,,0.00,VWS V14.01,2013-08-07 14:05:00,
2013-08-07 09:10:00,81.2,75.6,29.97,East,79,1.5,3.0,83,0.00,,,0.00,VWS V14.01,2013-08-07 14:10:00,
2013-08-07 09:15:00,81.3,76.0,29.97,ENE,77,1.5,3.0,84,0.00,,,0.00,VWS V14.01,2013-08-07 14:15:00,
2013-08-07 09:20:00,81.5,76.2,29.98,NNE,12,3.0,4.0,84,0.00,,,0.00,VWS V14.01,2013-08-07 14:20:00,
2013-08-07 09:25:00,81.3,76.0,29.98,NE,41,1.5,6.0,84,0.00,,,0.00,VWS V14.01,2013-08-07 14:25:00,
2013-08-07 09:30:00,80.8,75.9,29.99,NNE,23,7.5,8.0,85,0.00,,,0.00,VWS V14.01,2013-08-07 14:30:00,
2013-08-07 09:35:00,80.1,75.9,29.99,NNE,26,7.5,11.0,87,0.00,,,0.00,VWS V14.01,2013-08-07 14:35:00,
2013-08-07 09:40:00,79.7,75.5,29.98,East,98,4.5,11.0,87,0.00,,,0.00,VWS V14.01,2013-08-07 14:40:00,
2013-08-07 09:45:00,79.5,75.6,29.98,ESE,121,3.0,11.0,88,0.00,,,0.00,VWS V14.01,2013-08-07 14:45:00,
2013-08-07 09:50:00,79.4,75.5,29.98,ENE,71,7.5,11.0,88,0.00,,,0.00,VWS V14.01,2013-08-07 14:50:00,
2013-08-07 09:55:00,79.3,75.8,29.99,SSW,200,1.5,11.0,89,0.00,,,0.00,VWS V14.01,2013-08-07 14:55:00,
2013-08-07 10:00:00,79.4,75.9,29.99,ENE,74,4.5,5.0,89,0.00,,,0.00,VWS V14.01,2013-08-07 15:00:00,
2013-08-07 10:05:00,79.2,75.7,29.99,NE,49,12.0,13.0,89,0.00,,,0.00,VWS V14.01,2013-08-07 15:05:00,
2013-08-07 10:10:00,79.3,75.4,29.99,NNE,13,13.5,13.5,88,0.00,,,0.00,VWS V14.01,2013-08-07 15:10:00,
2013-08-07 10:15:00,79.2,75.3,30.00,NE,38,4.5,13.0,88,0.00,,,0.00,VWS V14.01,2013-08-07 15:15:00,
2013-08-07 10:20:00,78.8,74.9,30.00,ENE,75,9.0,13.0,88,0.00,,,0.00,VWS V14.01,2013-08-07 15:20:00,
2013-08-07 10:25:00,78.3,74.8,30.00,ENE,60,10.5,13.0,89,0.00,,,0.00,VWS V14.01,2013-08-07 15:25:00,
2013-08-07 10:30:00,77.9,74.4,30.01,NE,44,10.5,13.0,89,0.00,,,0.00,VWS V14.01,2013-08-07 15:30:00,
2013-08-07 10:35:00,77.5,73.3,30.02,NNE,27,6.0,13.0,87,0.00,,,0.00,VWS V14.01,2013-08-07 15:35:00,
2013-08-07 10:40:00,77.1,72.9,30.02,East,82,6.0,13.0,87,0.00,,,0.00,VWS V14.01,2013-08-07 15:40:00,
2013-08-07 10:45:00,77.0,72.8,30.01,North,8,4.5,13.0,87,0.00,,,0.00,VWS V14.01,2013-08-07 15:45:00,
2013-08-07 10:50:00,77.1,72.6,30.01,ENE,75,4.5,13.0,86,0.00,,,0.00,VWS V14.01,2013-08-07 15:50:00,
2013-08-07 10:55:00,77.4,72.5,30.00,SE,132,3.0,13.0,85,0.00,,,0.00,VWS V14.01,2013-08-07 15:55:00,
2013-08-07 11:00:00,77.7,72.8,30.00,ENE,72,1.5,13.0,85,0.00,,,0.00,VWS V14.01,2013-08-07 16:00:00,
2013-08-07 11:05:00,78.1,72.5,30.00,ESE,117,1.5,13.0,83,0.00,,,0.00,VWS V14.01,2013-08-07 16:05:00,
2013-08-07 11:10:00,78.3,72.7,30.00,East,87,7.5,13.0,83,0.00,,,0.00,VWS V14.01,2013-08-07 16:10:00,
2013-08-07 11:15:00,79.0,73.0,30.00,SSE,156,6.0,13.0,82,0.00,,,0.00,VWS V14.01,2013-08-07 16:15:00,
2013-08-07 11:20:00,80.0,73.7,29.99,East,89,4.5,13.0,81,0.00,,,0.00,VWS V14.01,2013-08-07 16:20:00,
2013-08-07 11:25:00,80.9,74.2,29.99,SSE,148,7.5,13.0,80,0.00,,,0.00,VWS V14.01,2013-08-07 16:25:00,
2013-08-07 11:30:00,81.4,74.3,30.00,SSE,151,3.0,13.0,79,0.00,,,0.00,VWS V14.01,2013-08-07 16:30:00,
2013-08-07 11:35:00,81.7,74.6,30.00,SW,225,1.5,13.0,79,0.00,,,0.00,VWS V14.01,2013-08-07 16:35:00,
2013-08-07 11:40:00,82.4,74.5,30.00,SSE,165,9.0,13.0,77,0.00,,,0.00,VWS V14.01,2013-08-07 16:40:00,
2013-08-07 11:45:00,82.8,74.5,30.00,SE,132,1.5,13.0,76,0.00,,,0.00,VWS V14.01,2013-08-07 16:45:00,
2013-08-07 11:50:00,83.4,74.7,30.00,SSW,193,4.5,13.0,75,0.00,,,0.00,VWS V14.01,2013-08-07 16:50:00,
2013-08-07 11:55:00,83.9,75.1,30.00,SSE,162,1.5,13.0,75,0.00,,,0.00,VWS V14.01,2013-08-07 16:55:00,
2013-08-07 12:00:00,84.3,75.1,30.00,SSE,156,3.0,5.0,74,0.00,,,0.00,VWS V14.01,2013-08-07 17:00:00,
2013-08-07 12:05:00,84.6,75.0,29.99,South,180,4.5,9.0,73,0.00,,,0.00,VWS V14.01,2013-08-07 17:05:00,
2013-08-07 12:10:00,84.7,75.5,29.99,SE,131,3.0,9.0,74,0.00,,,0.00,VWS V14.01,2013-08-07 17:10:00,
2013-08-07 12:15:00,84.5,75.3,29.99,SE,142,4.5,9.0,74,0.00,,,0.00,VWS V14.01,2013-08-07 17:15:00,
2013-08-07 12:20:00,85.1,75.9,29.98,South,184,4.5,9.0,74,0.00,,,0.00,VWS V14.01,2013-08-07 17:20:00,
2013-08-07 12:25:00,85.0,75.4,29.98,SSE,160,6.0,9.0,73,0.00,,,0.00,VWS V14.01,2013-08-07 17:25:00,
2013-08-07 12:30:00,84.8,75.6,29.98,SW,228,1.5,9.0,74,0.00,,,0.00,VWS V14.01,2013-08-07 17:30:00,
2013-08-07 12:35:00,85.0,75.4,29.98,South,169,1.5,9.0,73,0.00,,,0.00,VWS V14.01,2013-08-07 17:35:00,
2013-08-07 12:40:00,85.4,75.8,29.98,ESE,117,6.0,9.0,73,0.00,,,0.00,VWS V14.01,2013-08-07 17:40:00,
2013-08-07 12:45:00,86.2,75.7,29.98,SSW,203,1.5,9.0,71,0.00,,,0.00,VWS V14.01,2013-08-07 17:45:00,
2013-08-07 12:50:00,86.2,75.7,29.98,SSW,200,3.0,9.0,71,0.00,,,0.00,VWS V14.01,2013-08-07 17:50:00,
2013-08-07 12:55:00,86.0,75.1,29.98,SSW,203,3.0,9.0,70,0.00,,,0.00,VWS V14.01,2013-08-07 17:55:00,
2013-08-07 13:00:00,86.0,75.9,29.98,East,82,4.5,9.0,72,0.00,,,0.00,VWS V14.01,2013-08-07 18:00:00,
2013-08-07 13:05:00,85.7,75.6,29.97,South,169,1.5,9.0,72,0.00,,,0.00,VWS V14.01,2013-08-07 18:05:00,
2013-08-07 13:10:00,86.3,75.4,29.97,SE,136,3.0,9.0,70,0.00,,,0.00,VWS V14.01,2013-08-07 18:10:00,
2013-08-07 13:15:00,86.9,76.4,29.96,South,187,1.5,9.0,71,0.00,,,0.00,VWS V14.01,2013-08-07 18:15:00,
2013-08-07 13:25:00,87.9,76.5,29.95,SSE,150,3.0,3.0,69,0.00,,,0.00,VWS V14.01,2013-08-07 18:25:00,
2013-08-07 13:30:00,88.4,76.9,29.95,SSE,159,4.5,5.0,69,0.00,,,0.00,VWS V14.01,2013-08-07 18:30:00,
2013-08-07 13:35:00,88.7,76.3,29.95,ENE,75,4.5,9.0,67,0.00,,,0.00,VWS V14.01,2013-08-07 18:35:00,
2013-08-07 13:40:00,88.9,76.1,29.95,South,173,3.0,9.0,66,0.00,,,0.00,VWS V14.01,2013-08-07 18:40:00,
2013-08-07 13:45:00,89.5,78.0,29.95,NE,39,0.0,9.0,69,0.00,,,0.00,VWS V14.01,2013-08-07 18:45:00,
2013-08-07 13:50:00,89.6,78.1,29.95,SSE,166,1.5,9.0,69,0.00,,,0.00,VWS V14.01,2013-08-07 18:50:00,
2013-08-07 13:55:00,90.2,77.8,29.95,ESE,118,0.0,9.0,67,0.00,,,0.00,VWS V14.01,2013-08-07 18:55:00,
2013-08-07 14:00:00,90.5,78.1,29.95,SSW,202,1.5,2.0,67,0.00,,,0.00,VWS V14.01,2013-08-07 19:00:00,
2013-08-07 14:05:00,91.1,78.2,29.95,East,83,0.0,2.0,66,0.00,,,0.00,VWS V14.01,2013-08-07 19:05:00,
2013-08-07 14:10:00,91.4,76.1,29.94,South,172,3.0,4.0,61,0.00,,,0.00,VWS V14.01,2013-08-07 19:10:00,
2013-08-07 14:15:00,91.4,77.5,29.94,SSW,201,3.0,4.0,64,0.00,,,0.00,VWS V14.01,2013-08-07 19:15:00,
2013-08-07 14:20:00,91.2,76.8,29.94,SSW,193,0.0,5.0,63,0.00,,,0.00,VWS V14.01,2013-08-07 19:20:00,
2013-08-07 14:25:00,91.8,78.4,29.94,ESE,115,0.0,5.0,65,0.00,,,0.00,VWS V14.01,2013-08-07 19:25:00,
2013-08-07 14:30:00,92.3,77.9,29.94,SSE,153,1.5,5.0,63,0.00,,,0.00,VWS V14.01,2013-08-07 19:30:00,
2013-08-07 14:35:00,92.4,76.5,29.94,South,177,3.0,5.0,60,0.00,,,0.00,VWS V14.01,2013-08-07 19:35:00,
2013-08-07 14:40:00,92.8,78.8,29.93,SSE,159,0.0,5.0,64,0.00,,,0.00,VWS V14.01,2013-08-07 19:40:00,
2013-08-07 14:45:00,93.3,77.3,29.93,East,93,3.0,5.0,60,0.00,,,0.00,VWS V14.01,2013-08-07 19:45:00,
2013-08-07 14:50:00,93.4,78.4,29.93,SSE,152,1.5,5.0,62,0.00,,,0.00,VWS V14.01,2013-08-07 19:50:00,
2013-08-07 14:55:00,93.7,77.2,29.93,ENE,68,1.5,7.0,59,0.00,,,0.00,VWS V14.01,2013-08-07 19:55:00,
2013-08-07 15:00:00,93.6,77.6,29.93,WSW,243,1.5,7.0,60,0.00,,,0.00,VWS V14.01,2013-08-07 20:00:00,
2013-08-07 15:05:00,93.4,77.9,29.93,SSE,163,0.0,7.0,61,0.00,,,0.00,VWS V14.01,2013-08-07 20:05:00,
2013-08-07 15:10:00,93.9,77.9,29.92,South,187,0.0,7.0,60,0.00,,,0.00,VWS V14.01,2013-08-07 20:10:00,
2013-08-07 15:15:00,94.1,77.6,29.92,SW,218,0.0,7.0,59,0.00,,,0.00,VWS V14.01,2013-08-07 20:15:00,
2013-08-07 15:20:00,93.8,75.7,29.92,SSE,162,0.0,7.0,56,0.00,,,0.00,VWS V14.01,2013-08-07 20:20:00,
2013-08-07 15:25:00,93.4,76.4,29.92,South,190,3.0,7.0,58,0.00,,,0.00,VWS V14.01,2013-08-07 20:25:00,
2013-08-07 15:30:00,92.8,77.4,29.92,SSE,159,1.5,7.0,61,0.00,,,0.00,VWS V14.01,2013-08-07 20:30:00,
2013-08-07 15:35:00,92.2,76.8,29.92,ESE,105,0.0,7.0,61,0.00,,,0.00,VWS V14.01,2013-08-07 20:35:00,
2013-08-07 15:40:00,91.7,75.8,29.92,SSW,195,1.5,8.0,60,0.00,,,0.00,VWS V14.01,2013-08-07 20:40:00,
2013-08-07 15:45:00,91.5,76.2,29.92,SSE,160,0.0,8.0,61,0.00,,,0.00,VWS V14.01,2013-08-07 20:45:00,
2013-08-07 15:50:00,91.1,75.8,29.92,SSE,166,3.0,8.0,61,0.00,,,0.00,VWS V14.01,2013-08-07 20:50:00,
2013-08-07 15:55:00,91.0,77.1,29.92,SE,141,0.0,8.0,64,0.00,,,0.00,VWS V14.01,2013-08-07 20:55:00,
2013-08-07 16:00:00,91.0,78.1,29.92,SW,219,0.0,0.0,66,0.00,,,0.00,VWS V14.01,2013-08-07 21:00:00,
2013-08-07 16:05:00,91.5,77.6,29.92,ESE,107,4.5,4.5,64,0.00,,,0.00,VWS V14.01,2013-08-07 21:05:00,
2013-08-07 16:10:00,92.1,77.2,29.92,SSE,165,3.0,4.0,62,0.00,,,0.00,VWS V14.01,2013-08-07 21:10:00,
2013-08-07 16:15:00,92.3,78.4,29.92,SSE,160,0.0,4.0,64,0.00,,,0.00,VWS V14.01,2013-08-07 21:15:00,
2013-08-07 16:20:00,91.8,76.9,29.92,South,174,0.0,4.0,62,0.00,,,0.00,VWS V14.01,2013-08-07 21:20:00,
2013-08-07 16:25:00,91.7,77.3,29.92,SSW,201,0.0,4.0,63,0.00,,,0.00,VWS V14.01,2013-08-07 21:25:00,
2013-08-07 16:30:00,91.4,76.6,29.92,SSW,193,3.0,4.0,62,0.00,,,0.00,VWS V14.01,2013-08-07 21:30:00,
2013-08-07 16:35:00,91.0,77.1,29.92,SW,219,0.0,4.0,64,0.00,,,0.00,VWS V14.01,2013-08-07 21:35:00,
2013-08-07 16:40:00,90.6,75.8,29.91,SSE,168,1.5,4.0,62,0.00,,,0.00,VWS V14.01,2013-08-07 21:40:00,
2013-08-07 16:45:00,90.3,76.0,29.91,SW,222,3.0,4.0,63,0.00,,,0.00,VWS V14.01,2013-08-07 21:45:00,
2013-08-07 16:50:00,90.2,75.9,29.91,SSE,165,3.0,6.0,63,0.00,,,0.00,VWS V14.01,2013-08-07 21:50:00,
2013-08-07 16:55:00,90.2,76.4,29.91,SSW,212,3.0,9.0,64,0.00,,,0.00,VWS V14.01,2013-08-07 21:55:00,
2013-08-07 17:00:00,90.3,77.4,29.91,South,190,3.0,9.0,66,0.00,,,0.00,VWS V14.01,2013-08-07 22:00:00,
2013-08-07 17:05:00,90.2,76.8,29.91,South,173,3.0,9.0,65,0.00,,,0.00,VWS V14.01,2013-08-07 22:05:00,
2013-08-07 17:10:00,90.6,78.6,29.91,South,176,7.5,9.0,68,0.00,,,0.00,VWS V14.01,2013-08-07 22:10:00,
2013-08-07 17:15:00,91.0,78.1,29.91,SW,219,3.0,9.0,66,0.00,,,0.00,VWS V14.01,2013-08-07 22:15:00,
2013-08-07 17:20:00,90.9,77.5,29.91,WSW,247,1.5,9.0,65,0.00,,,0.00,VWS V14.01,2013-08-07 22:20:00,
2013-08-07 17:25:00,90.4,77.5,29.91,South,174,1.5,9.0,66,0.00,,,0.00,VWS V14.01,2013-08-07 22:25:00,
2013-08-07 17:30:00,90.0,77.1,29.91,South,188,3.0,9.0,66,0.00,,,0.00,VWS V14.01,2013-08-07 22:30:00,
2013-08-07 17:35:00,89.7,76.8,29.91,SSW,193,7.5,9.0,66,0.00,,,0.00,VWS V14.01,2013-08-07 22:35:00,
2013-08-07 17:40:00,89.4,76.6,29.91,SW,232,1.5,9.0,66,0.00,,,0.00,VWS V14.01,2013-08-07 22:40:00,
2013-08-07 17:45:00,89.2,77.3,29.91,SSE,166,0.0,9.0,68,0.00,,,0.00,VWS V14.01,2013-08-07 22:45:00,
2013-08-07 17:50:00,89.0,77.5,29.91,SSE,160,0.0,9.0,69,0.00,,,0.00,VWS V14.01,2013-08-07 22:50:00,
2013-08-07 17:55:00,88.7,76.3,29.91,SSE,148,3.0,9.0,67,0.00,,,0.00,VWS V14.01,2013-08-07 22:55:00,
2013-08-07 18:00:00,88.5,76.6,29.91,SW,219,1.5,4.0,68,0.00,,,0.00,VWS V14.01,2013-08-07 23:00:00,
2013-08-07 18:05:00,88.2,76.3,29.91,SSW,192,6.0,6.0,68,0.00,,,0.00,VWS V14.01,2013-08-07 23:05:00,
2013-08-07 18:10:00,88.0,76.6,29.91,SW,226,1.5,5.0,69,0.00,,,0.00,VWS V14.01,2013-08-07 23:10:00,
2013-08-07 18:15:00,87.9,76.0,29.91,SE,134,1.5,5.0,68,0.00,,,0.00,VWS V14.01,2013-08-07 23:15:00,
2013-08-07 18:20:00,87.9,76.0,29.91,South,181,6.0,6.0,68,0.00,,,0.00,VWS V14.01,2013-08-07 23:20:00,
2013-08-07 18:25:00,87.9,76.0,29.91,South,187,0.0,5.0,68,0.00,,,0.00,VWS V14.01,2013-08-07 23:25:00,
2013-08-07 18:30:00,87.6,76.2,29.91,SSW,212,0.0,5.0,69,0.00,,,0.00,VWS V14.01,2013-08-07 23:30:00,
2013-08-07 18:35:00,87.4,76.4,29.91,SSE,163,0.0,5.0,70,0.00,,,0.00,VWS V14.01,2013-08-07 23:35:00,
2013-08-07 18:40:00,87.4,76.4,29.91,SSE,156,0.0,5.0,70,0.00,,,0.00,VWS V14.01,2013-08-07 23:40:00,
2013-08-07 18:45:00,87.5,76.9,29.91,SE,134,0.0,5.0,71,0.00,,,0.00,VWS V14.01,2013-08-07 23:45:00,
2013-08-07 18:50:00,87.4,76.8,29.91,West,259,0.0,5.0,71,0.00,,,0.00,VWS V14.01,2013-08-07 23:50:00,
2013-08-07 18:55:00,87.0,76.5,29.91,West,259,0.0,5.0,71,0.00,,,0.00,VWS V14.01,2013-08-07 23:55:00,
2013-08-07 19:00:00,86.8,76.7,29.91,SW,226,0.0,5.0,72,0.00,,,0.00,VWS V14.01,2013-08-08 00:00:00,
2013-08-07 19:05:00,86.5,76.4,29.91,SW,225,0.0,5.0,72,0.00,,,0.00,VWS V14.01,2013-08-08 00:05:00,
2013-08-07 19:10:00,86.2,76.9,29.92,SW,218,0.0,5.0,74,0.00,,,0.00,VWS V14.01,2013-08-08 00:10:00,
2013-08-07 19:15:00,85.8,77.0,29.92,NNW,345,0.0,5.0,75,0.00,,,0.00,VWS V14.01,2013-08-08 00:15:00,
2013-08-07 19:20:00,85.6,76.8,29.92,NNW,345,0.0,5.0,75,0.00,,,0.00,VWS V14.01,2013-08-08 00:20:00,
2013-08-07 19:25:00,85.5,77.1,29.92,NNW,345,0.0,5.0,76,0.00,,,0.00,VWS V14.01,2013-08-08 00:25:00,
2013-08-07 19:30:00,85.4,77.0,29.92,NNW,345,0.0,5.0,76,0.00,,,0.00,VWS V14.01,2013-08-08 00:30:00,
2013-08-07 19:35:00,85.3,77.3,29.92,NNW,345,0.0,5.0,77,0.00,,,0.00,VWS V14.01,2013-08-08 00:35:00,
2013-08-07 19:40:00,85.2,77.2,29.92,North,355,0.0,5.0,77,0.00,,,0.00,VWS V14.01,2013-08-08 00:40:00,
2013-08-07 19:45:00,85.1,77.5,29.92,North,9,1.5,5.0,78,0.00,,,0.00,VWS V14.01,2013-08-08 00:45:00,
2013-08-07 19:50:00,85.0,77.8,29.92,North,9,0.0,5.0,79,0.00,,,0.00,VWS V14.01,2013-08-08 00:50:00,
2013-08-07 19:55:00,84.9,77.7,29.92,North,10,0.0,5.0,79,0.00,,,0.00,VWS V14.01,2013-08-08 00:55:00,
2013-08-07 20:00:00,84.6,78.1,29.92,SE,127,4.5,6.0,81,0.00,,,0.00,VWS V14.01,2013-08-08 01:00:00,
2013-08-07 20:05:00,83.9,78.6,29.92,NE,53,1.5,6.0,84,0.00,,,0.00,VWS V14.01,2013-08-08 01:05:00,
2013-08-07 20:10:00,83.6,79.0,29.92,ENE,62,1.5,6.0,86,0.00,,,0.00,VWS V14.01,2013-08-08 01:10:00,
2013-08-07 20:15:00,83.2,78.9,29.93,East,97,4.5,6.0,87,0.00,,,0.00,VWS V14.01,2013-08-08 01:15:00,
2013-08-07 20:20:00,82.9,78.6,29.93,NE,34,3.0,6.0,87,0.00,,,0.00,VWS V14.01,2013-08-08 01:20:00,
2013-08-07 20:25:00,82.4,78.1,29.93,ENE,68,0.0,6.0,87,0.00,,,0.00,VWS V14.01,2013-08-08 01:25:00,
2013-08-07 20:30:00,82.0,78.1,29.93,NE,56,3.0,6.0,88,0.00,,,0.00,VWS V14.01,2013-08-08 01:30:00,
2013-08-07 20:35:00,81.6,77.7,29.93,NNE,25,7.5,7.5,88,0.00,,,0.00,VWS V14.01,2013-08-08 01:35:00,
2013-08-07 20:40:00,81.3,77.8,29.93,NNE,13,3.0,7.0,89,0.00,,,0.00,VWS V14.01,2013-08-08 01:40:00,
2013-08-07 20:45:00,81.0,77.5,29.93,ENE,62,3.0,9.0,89,0.00,,,0.00,VWS V14.01,2013-08-08 01:45:00,
2013-08-07 20:50:00,80.7,77.5,29.93,NNE,29,3.0,9.0,90,0.00,,,0.00,VWS V14.01,2013-08-08 01:50:00,
2013-08-07 20:55:00,80.5,77.6,29.93,ENE,77,4.5,9.0,91,0.00,,,0.00,VWS V14.01,2013-08-08 01:55:00,
2013-08-07 21:00:00,80.3,77.4,29.93,ENE,63,3.0,9.0,91,0.00,,,0.00,VWS V14.01,2013-08-08 02:00:00,
2013-08-07 21:05:00,80.1,77.2,29.93,WNW,302,1.5,9.0,91,0.00,,,0.00,VWS V14.01,2013-08-08 02:05:00,
2013-08-07 21:10:00,80.0,77.5,29.94,ENE,69,1.5,9.0,92,0.00,,,0.00,VWS V14.01,2013-08-08 02:10:00,
2013-08-07 21:15:00,79.8,77.3,29.94,ENE,62,4.5,9.0,92,0.00,,,0.00,VWS V14.01,2013-08-08 02:15:00,
2013-08-07 21:20:00,79.7,77.2,29.94,NE,51,3.0,9.0,92,0.00,,,0.00,VWS V14.01,2013-08-08 02:20:00,
2013-08-07 21:25:00,79.5,77.0,29.94,NNE,26,4.5,9.0,92,0.00,,,0.00,VWS V14.01,2013-08-08 02:25:00,
2013-08-07 21:30:00,79.4,76.9,29.94,ENE,77,7.5,9.0,92,0.00,,,0.00,VWS V14.01,2013-08-08 02:30:00,
2013-08-07 21:35:00,79.3,76.8,29.94,NNE,32,9.0,9.0,92,0.00,,,0.00,VWS V14.01,2013-08-08 02:35:00,
2013-08-07 21:40:00,79.1,76.6,29.94,NE,53,1.5,9.0,92,0.00,,,0.00,VWS V14.01,2013-08-08 02:40:00,
2013-08-07 21:45:00,79.0,76.5,29.95,NE,50,3.0,9.0,92,0.00,,,0.00,VWS V14.01,2013-08-08 02:45:00,
2013-08-07 21:50:00,78.9,76.4,29.95,ENE,67,7.5,9.0,92,0.00,,,0.00,VWS V14.01,2013-08-08 02:50:00,
2013-08-07 21:55:00,78.8,76.6,29.95,ENE,74,6.0,9.0,93,0.00,,,0.00,VWS V14.01,2013-08-08 02:55:00,
2013-08-07 22:00:00,78.7,76.5,29.95,North,4,3.0,6.0,93,0.00,,,0.00,VWS V14.01,2013-08-08 03:00:00,
2013-08-07 22:05:00,78.6,76.4,29.95,East,97,3.0,6.0,93,0.00,,,0.00,VWS V14.01,2013-08-08 03:05:00,
2013-08-07 22:10:00,78.6,76.4,29.95,East,101,1.5,6.0,93,0.00,,,0.00,VWS V14.01,2013-08-08 03:10:00,
2013-08-07 22:15:00,78.5,76.3,29.95,NE,56,6.0,6.0,93,0.00,,,0.00,VWS V14.01,2013-08-08 03:15:00,
2013-08-07 22:20:00,78.5,76.3,29.95,ENE,70,3.0,7.0,93,0.00,,,0.00,VWS V14.01,2013-08-08 03:20:00,
2013-08-07 22:25:00,78.4,76.2,29.95,East,83,9.0,9.0,93,0.00,,,0.00,VWS V14.01,2013-08-08 03:25:00,
2013-08-07 22:30:00,78.4,76.2,29.95,ENE,62,1.5,8.0,93,0.00,,,0.00,VWS V14.01,2013-08-08 03:30:00,
2013-08-07 22:35:00,78.4,76.2,29.95,NE,34,4.5,8.0,93,0.00,,,0.00,VWS V14.01,2013-08-08 03:35:00,
2013-08-07 22:40:00,78.4,76.2,29.95,ENE,57,4.5,8.0,93,0.00,,,0.00,VWS V14.01,2013-08-08 03:40:00,
2013-08-07 22:45:00,78.5,76.3,29.95,East,87,4.5,8.0,93,0.00,,,0.00,VWS V14.01,2013-08-08 03:45:00,
2013-08-07 22:50:00,78.4,76.2,29.96,SSE,149,0.0,8.0,93,0.00,,,0.00,VWS V14.01,2013-08-08 03:50:00,
2013-08-07 22:55:00,78.4,76.2,29.96,ESE,108,0.0,8.0,93,0.00,,,0.00,VWS V14.01,2013-08-08 03:55:00,
2013-08-07 23:00:00,78.4,76.2,29.96,East,86,3.0,8.0,93,0.00,,,0.00,VWS V14.01,2013-08-08 04:00:00,
2013-08-07 23:01:00,78.4,76.2,29.96,ENE,63,1.5,8.0,93,0.00,,,0.00,VWS V14.01,2013-08-08 04:01:00,
2013-08-07 23:06:00,78.4,76.2,29.96,SSW,211,0.0,8.0,93,0.00,,,0.00,VWS V14.01,2013-08-08 04:06:00,
2013-08-07 23:11:00,78.3,76.1,29.96,NNW,336,3.0,8.0,93,0.00,,,0.00,VWS V14.01,2013-08-08 04:11:00,
2013-08-07 23:16:00,78.4,76.2,29.95,ENE,77,3.0,8.0,93,0.00,,,0.00,VWS V14.01,2013-08-08 04:16:00,
2013-08-07 23:21:00,78.4,76.2,29.95,SSE,149,0.0,8.0,93,0.00,,,0.00,VWS V14.01,2013-08-08 04:21:00,
2013-08-07 23:26:00,78.5,76.3,29.96,East,87,0.0,8.0,93,0.00,,,0.00,VWS V14.01,2013-08-08 04:26:00,
2013-08-07 23:31:00,78.5,76.3,29.96,SE,145,1.5,8.0,93,0.00,,,0.00,VWS V14.01,2013-08-08 04:31:00,
2013-08-07 23:36:00,78.3,74.1,29.95,SSW,210,3.0,8.0,87,0.00,,,0.00,VWS V14.01,2013-08-08 04:36:00,
2013-08-07 23:41:00,78.1,75.6,29.95,ESE,108,1.5,8.0,92,0.01,,,0.01,VWS V14.01,2013-08-08 04:41:00,
2013-08-07 23:46:00,77.7,76.2,29.95,NE,53,4.5,8.0,95,0.01,,,0.01,VWS V14.01,2013-08-08 04:46:00,
2013-08-07 23:51:00,77.6,76.4,29.95,ESE,117,0.0,8.0,96,0.02,,,0.02,VWS V14.01,2013-08-08 04:51:00,
2013-08-07 23:56:00,77.4,75.9,29.96,South,180,0.0,8.0,95,0.06,,,0.06,VWS V14.01,2013-08-08 04:56:00,